Location: Zilina
(49.2170°N, 18.7330°E)
Time: 08:40:00
(UTC+02:00)

ISS - Pass Details

Date: 28 March 2019
Orbit: 408 x 410 km, 51.6° (Epoch: 25 April)

Event Time Altitude Azimuth Distance (km) Brightness Sun altitude
Rises 20:55:39 0° 285° (WNW) 2,337 1.1 -25.5°
Reaches altitude 10° 20:57:46 10° 289° (WNW) 1,475 -0.1 -25.8°
Enters shadow 20:59:22 26° 296° (WNW) 853 -1.6 -26.0°
